Welcome to the New NWS' Forecast!
Most changes are behind the scenes, but click here for differences you might notice.

Regional Weather Roundup (RWR)

Issued by National Weather Service (NWS)

                            
000
ASUS46 KSEW 161110
RWRWA 

WASHINGTON REGIONAL WEATHER ROUNDUP
NATIONAL WEATHER SERVICE SEATTLE WA
300 AM PST FRI NOV 16 2018

NOTE:"FAIR" INDICATES FEW OR NO CLOUDS BELOW 12,000 FEET WITH NO 
SIGNIFICANT WEATHER AND/OR OBSTRUCTIONS TO VISIBILITY.

WAZ507-509-555>559-161200-
SEATTLE, TACOMA, EVERETT, AND VICINITY
  
CITY           SKY/WX    TMP DP  RH WIND       PRES   REMARKS
EVERETT        CLOUDY    50  49  96 S3        30.20S FOG              
BOEING FIELD   CLOUDY    52  50  93 SE7       30.20S                  
RENTON         LGT RAIN  52  50  93 SE5       30.20R FOG              
SEATAC AIRPORT LGT RAIN  52  50  93 S7        30.20S FOG              
JBLM-MCCHORD   DRIZZLE   52  52 100 CALM      30.20R FOG              
PUYALLUP       DRIZZLE   52  52 100 CALM      30.20R                  
BREMERTON      CLOUDY    50  49  96 CALM      30.19S                  
JBLM-FT LEWIS  CLOUDY    53  53 100 SE6       30.19R                  
TACOMA NARROWS CLOUDY    50  49  96 S5        30.21R FOG              
$$
 
WAZ001-503-506-510-514-515-161200-
NORTH INTERIOR
  
CITY           SKY/WX    TMP DP  RH WIND       PRES   REMARKS
BELLINGHAM     CLOUDY    51  48  89 VRB5      30.20S                  
FRIDAY HARBOR  CLOUDY    50  48  93 CALM      30.22R                  
EASTSOUND      CLOUDY    52  50  93 VRB3      30.20S                  
PORT ANGELES   FOG       51  50  96 CALM      30.22R VSB 1/4          
EDIZ HOOK      DRIZZLE   50  49  98 E5        30.22R                  
PORT TOWNSEND  DRIZZLE   50  52 100 W7        30.20R                  
NAS WHIDBEY    CLOUDY    53  49  86 N5        30.24R FOG              
ARLINGTON      LGT RAIN  49  49 100 N3        30.20S FOG              
BURLINGTON     CLOUDY    50  50 100 NE3       30.20F FOG              
$$
 
WAZ020-022-039-040-504-511-512-161200-
SOUTHWEST INTERIOR
  
CITY           SKY/WX    TMP DP  RH WIND       PRES   REMARKS
SHELTON        CLOUDY    53  51  93 NW7       30.17R                  
OLYMPIA        CLOUDY    52  49  89 S12       30.19S                  
CHEHALIS       CLOUDY    50  48  93 S10       30.22S                  
KELSO          CLOUDY    47  46  97 SE5       30.25F                  
VANCOUVER      CLOUDY    46  44  93 CALM      30.25S                  
SCAPPOOSE, OR  CLOUDY    46  43  89 CALM      30.24F                  
PORTLAND, OR   CLOUDY    45  43  93 CALM      30.25F                  
$$
 
WAZ021-516-517-161200-
WASHINGTON COAST
  
CITY           SKY/WX    TMP DP  RH WIND       PRES   REMARKS
FORKS          CLOUDY    50  50 100 CALM      30.20S FOG              
HOQUIAM        LGT RAIN  54  54 100 SW7       30.21S VSB 3/4          
ASTORIA, OR    CLOUDY    48  48 100 E3        30.23F FOG              
$$
 
WAZ019-023-024-040-567>569-161200-
CASCADE MOUNTAINS AND COLUMBIA GORGE
  
CITY           SKY/WX    TMP DP  RH WIND       PRES   REMARKS
STAMPEDE PASS  NOT AVBL                                               
TROUTDALE, OR  MOCLDY    39  38  96 CALM      30.25F FOG              
HOOD RIVER, OR MOSUNNY   37  36  93 S5        30.18F                  
THE DALLES, OR PTCLDY    41  37  86 SW7       30.16F                  
$$

WAZ026-027-041>044-520-521-161200-
EAST SLOPES
  
CITY           SKY/WX    TMP DP  RH WIND       PRES   REMARKS
OMAK           LGT RAIN  38  36  92 N14G25    30.18R                  
WENATCHEE      MOCLDY    34  32  92 NE3       30.13R FOG              
ELLENSBURG     PTCLDY    48  41  76 NW8       30.11R                  
YAKIMA         CLOUDY    34  31  88 CALM      30.14R FOG              
SUNNYSIDE ARPT CLOUDY    35  34  96 CALM      30.14  FOG              
YAKIMA TC      PTSUNNY   36  32  85 CALM      30.11S                  
$$

WAZ028-034-035-161200-
COLUMBIA BASIN
  
CITY           SKY/WX    TMP DP  RH WIND       PRES   REMARKS
EPHRATA        MOCLDY    37  34  89 N12       30.14R                  
MOSES LAKE     CLOUDY    35  32  88 N9        30.15R FOG              
PASCO          LGT RAIN  39  37  92 NW5       30.13F FOG              
RICHLAND ARPT  CLOUDY    41  38  91 CALM      30.14  FOG              
HERMISTON, OR  MOCLDY    34  32  92 SE3       30.13F                  
$$

WAZ036>038-161200-
NORTHEAST WASHINGTON
  
CITY           SKY/WX    TMP DP  RH WIND       PRES   REMARKS
SPOKANE GEIGER MOCLDY    38  35  89 CALM      30.11R FOG              
SPOKANE FELTS  CLOUDY    39  37  92 S8        30.13R FOG              
FAIRCHILD AFB  PTCLDY    35  35 100 CALM      30.10F FOG              
COEURDALENE,ID CLOUDY    41  38  89 CALM      30.12R                  
DEER PARK      CLOUDY    36  35  96 CALM      30.11F FOG              
$$

WAZ029>033-161200-
SOUTHEAST WASHINGTON
  
CITY           SKY/WX    TMP DP  RH WIND       PRES   REMARKS
PULLMAN        CLOUDY    42  38  85 CALM      30.11F                  
LEWISTON, ID   CLOUDY    43  38  82 CALM      30.11F                  
WALLA WALLA    CLOUDY    49  37  63 S9        30.12F                  
PENDLETON, OR  CLOUDY    42  35  76 SE8       30.13F                  
$$